QPF
0.00 0.00 0.00 0.00 0.00 0.00 0.00 0.00 0.00 0.00 0.00 0.00 0.00 0.00 0.00 0.00 0.00 0.00 0.00 0.00 0.00 0.00 0.00 0.00 0.00 0.00 0.00 0.00 0.00 0.00 0.00 0.00 0.00 0.00 0.00 0.00 0.00 0.00 0.00 0.00 0.00 0.00 0.00 0.00
0.00 0.00 0.00 0.00 0.00 0.00 0.00 0.00 0.00 0.00 0.00 0.00 0.00 0.00 0.00 0.00 0.00 0.00 0.00 0.00 0.00 0.00 0.00 0.00 0.00 0.00 0.00 0.00 0.00 0.00 0.00 0.00 0.00 0.00 0.00 0.00 0.00 0.00 0.00 0.00 0.00 0.00 0.00 0.00
0.00 0.00 0.00 0.00 0.00 0.00 0.00 0.00 0.00 0.00 0.00 0.00 0.00 0.00 0.00 0.00 0.00 0.00 0.00 0.00 0.00 0.00 0.00 0.00 0.00 0.00 0.00 0.00 0.00 0.00 0.00 0.00 0.00 0.00 0.00 0.00 0.00 0.00 0.00 0.00 0.00 0.00 0.00 0.00
0.00 0.00 0.00 0.00 0.00 0.00 0.00 0.00 0.00 0.00 0.00 0.00 0.00 0.00 0.00 0.00 0.00 0.00 0.00 0.00 0.00 0.00 0.00 0.00 0.00 0.00 0.00 0.00 0.00 0.00 0.00 0.00 0.00 0.00 0.00 0.00 0.00 0.00 0.00 0.00 0.00 0.00 0.00 0.00
0.00 0.00 0.00 0.00 0.00 0.00 0.00 0.00 0.00 0.00 0.00 0.00 0.00 0.00 0.00 0.00 0.00 0.00 0.00 0.00 0.00 0.00 0.00 0.00 0.00 0.00 0.00 0.00 0.00 0.00 0.00 0.00 0.00 0.00 0.00 0.00 0.00 0.00 0.00 0.00 0.00 0.00 0.00 0.00
0.00 0.00 0.00 0.00 0.00 0.00 0.00 0.00 0.00 0.00 0.00 0.00 0.00 0.00 0.00 0.00 0.00 0.00 0.00 0.00 0.00 0.00 0.00 0.00 0.00 0.00 0.00 0.00 0.00 0.00 0.00 0.00 0.00 0.00 0.00 0.00 0.00 0.00 0.00 0.00 0.00 0.00 0.00 0.00
0.00 0.00 0.00 0.00 0.00 0.00 0.00 0.00 0.00 0.00 0.00 0.00 0.00 0.00 0.00 0.00 0.00 0.00 0.00 0.00 0.00 0.00 0.00 0.00 0.00 0.00 0.00 0.00 0.00 0.00 0.00 0.00 0.00 0.00 0.00 0.00 0.00 0.00 0.00 0.00 0.00 0.00 0.00 0.00
0.00 0.00 0.00 0.00 0.00 0.00 0.00 0.00 0.00 0.00 0.00 0.00 0.00 0.00 0.00 0.00 0.00 0.00 0.00 0.00 0.00 0.00 0.00 0.00 0.00 0.00 0.00 0.00 0.00 0.00 0.00 0.00 0.00 0.00 0.00 0.00 0.00 0.00 0.00 0.00 0.00 0.00 0.00 0.00
0.00 0.00 0.00 0.00 0.00 0.00 0.00 0.00 0.00 0.00 0.00 0.00 0.00 0.00 0.00 0.00 0.00 0.00 0.00 0.00 0.00 0.00 0.00 0.00 0.00 0.00 0.00 0.00 0.00 0.00 0.00 0.00 0.00 0.00 0.00 0.00 0.00 0.01 0.01 0.00 0.01 0.01 0.01 0.01
0.00 0.00 0.00 0.00 0.00 0.00 0.00 0.00 0.00 0.00 0.00 0.00 0.00 0.00 0.00 0.00 0.00 0.00 0.00 0.00 0.00 0.00 0.00 0.00 0.00 0.00 0.00 0.00 0.00 0.00 0.00 0.00 0.00 0.00 0.00 0.00 0.00 0.01 0.01 0.01 0.01 0.01 0.01 0.01
0.00 0.00 0.00 0.00 0.00 0.00 0.00 0.00 0.00 0.00 0.00 0.00 0.00 0.00 0.00 0.00 0.00 0.00 0.00 0.00 0.00 0.00 0.00 0.00 0.00 0.00 0.00 0.00 0.00 0.00 0.00 0.00 0.00 0.00 0.00 0.00 0.00 0.00 0.01 0.01 0.01 0.03 0.03 0.03
0.00 0.00 0.00 0.00 0.00 0.00 0.00 0.00 0.00 0.00 0.00 0.00 0.00 0.00 0.00 0.00 0.00 0.00 0.00 0.00 0.00 0.00 0.00 0.00 0.00 0.00 0.00 0.00 0.00 0.00 0.00 0.00 0.00 0.00 0.00 0.00 0.01 0.00 0.00 0.01 0.01 0.01 0.01 0.02
0.00 0.00 0.00 0.00 0.00 0.00 0.00 0.00 0.00 0.00 0.00 0.00 0.00 0.00 0.00 0.00 0.00 0.00 0.00 0.00 0.00 0.00 0.00 0.00 0.00 0.00 0.00 0.00 0.00 0.00 0.00 0.00 0.00 0.01 0.01 0.01 0.01 0.01 0.01 0.01 0.00 0.00 0.01 0.01
0.00 0.00 0.00 0.00 0.00 0.00 0.00 0.00 0.00 0.00 0.00 0.00 0.00 0.00 0.00 0.00 0.00 0.00 0.00 0.00 0.00 0.00 0.00 0.00 0.00 0.00 0.00 0.00 0.00 0.00 0.00 0.00 0.01 0.01 0.01 0.01 0.02 0.02 0.02 0.02 0.01 0.00 0.00 0.00
0.00 0.00 0.00 0.00 0.00 0.00 0.00 0.00 0.00 0.00 0.00 0.00 0.00 0.00 0.00 0.00 0.00 0.00 0.00 0.00 0.00 0.00 0.00 0.00 0.00 0.00 0.00 0.00 0.00 0.00 0.00 0.00 0.01 0.01 0.01 0.01 0.01 0.02 0.02 0.01 0.01 0.01 0.00 0.00
0.00 0.00 0.00 0.00 0.00 0.00 0.00 0.00 0.00 0.00 0.00 0.00 0.00 0.00 0.00 0.00 0.00 0.00 0.00 0.00 0.00 0.00 0.00 0.00 0.00 0.00 0.00 0.00 0.00 0.00 0.00 0.01 0.01 0.01 0.01 0.01 0.01 0.02 0.02 0.02 0.01 0.01 0.01 0.00
0.00 0.00 0.00 0.00 0.00 0.00 0.00 0.00 0.00 0.00 0.00 0.00 0.00 0.00 0.00 0.00 0.00 0.00 0.00 0.00 0.00 0.00 0.00 0.00 0.00 0.00 0.00 0.00 0.00 0.01 0.01 0.01 0.01 0.01 0.01 0.01 0.02 0.02 0.02 0.02 0.02 0.01 0.01 0.00
0.00 0.00 0.00 0.00 0.00 0.00 0.00 0.00 0.00 0.00 0.00 0.00 0.00 0.00 0.00 0.00 0.00 0.00 0.00 0.00 0.00 0.00 0.00 0.00 0.00 0.00 0.00 0.00 0.00 0.01 0.01 0.01 0.02 0.02 0.02 0.01 0.02 0.02 0.02 0.02 0.02 0.01 0.01 0.01
0.00 0.00 0.00 0.00 0.00 0.00 0.00 0.00 0.00 0.00 0.00 0.00 0.00 0.00 0.00 0.00 0.00 0.00 0.00 0.00 0.00 0.00 0.00 0.00 0.00 0.00 0.00 0.00 0.00 0.01 0.02 0.02 0.02 0.01 0.01 0.01 0.01 0.01 0.01 0.02 0.01 0.01 0.01 0.01
0.00 0.00 0.00 0.00 0.00 0.00 0.00 0.00 0.00 0.00 0.00 0.00 0.00 0.00 0.00 0.00 0.00 0.00 0.00 0.00 0.00 0.00 0.00 0.00 0.00 0.00 0.00 0.00 0.01 0.02 0.02 0.02 0.02 0.01 0.01 0.01 0.01 0.01 0.01 0.01 0.01 0.01 0.01 0.01
0.00 0.00 0.00 0.00 0.00 0.00 0.00 0.00 0.00 0.00 0.00 0.00 0.00 0.00 0.00 0.00 0.00 0.00 0.00 0.00 0.00 0.00 0.00 0.00 0.00 0.00 0.00 0.01 0.02 0.02 0.02 0.02 0.02 0.01 0.02 0.02 0.01 0.01 0.01 0.01 0.01 0.02 0.02 0.02
0.00 0.00 0.00 0.00 0.00 0.00 0.00 0.00 0.00 0.00 0.00 0.00 0.00 0.00 0.00 0.00 0.00 0.00 0.00 0.00 0.00 0.00 0.00 0.00 0.00 0.01 0.01 0.02 0.02 0.02 0.01 0.01 0.01 0.01 0.01 0.02 0.02 0.02 0.01 0.01 0.02 0.02 0.02 0.02
0.00 0.00 0.00 0.00 0.00 0.00 0.00 0.00 0.00 0.00 0.00 0.00 0.00 0.00 0.00 0.00 0.00 0.00 0.00 0.00 0.00 0.00 0.00 0.00 0.00 0.01 0.02 0.02 0.01 0.01 0.01 0.01 0.01 0.01 0.01 0.02 0.02 0.02 0.02 0.02 0.02 0.02 0.02 0.02
0.00 0.00 0.00 0.00 0.00 0.00 0.00 0.00 0.00 0.00 0.00 0.00 0.00 0.00 0.00 0.00 0.00 0.00 0.00 0.00 0.00 0.00 0.00 0.00 0.01 0.01 0.01 0.01 0.01 0.01 0.01 0.01 0.01 0.01 0.02 0.02 0.02 0.02 0.02 0.02 0.02 0.02 0.02 0.02
0.00 0.00 0.00 0.00 0.00 0.00 0.00 0.00 0.00 0.00 0.00 0.00 0.00 0.00 0.00 0.00 0.00 0.00 0.00 0.00 0.00 0.00 0.00 0.00 0.01 0.01 0.00 0.00 0.01 0.01 0.01 0.01 0.02 0.02 0.02 0.02 0.01 0.02 0.02 0.02 0.02 0.02 0.02 0.02
0.00 0.00 0.00 0.00 0.00 0.00 0.00 0.00 0.00 0.00 0.00 0.00 0.00 0.00 0.00 0.00 0.00 0.00 0.00 0.00 0.00 0.00 0.00 0.00 0.00 0.00 0.00 0.00 0.01 0.01 0.01 0.01 0.01 0.01 0.01 0.01 0.01 0.02 0.02 0.02 0.02 0.02 0.02 0.02
0.00 0.00 0.00 0.00 0.00 0.00 0.00 0.00 0.00 0.00 0.00 0.00 0.00 0.00 0.00 0.00 0.00 0.00 0.00 0.00 0.00 0.00 0.00 0.00 0.00 0.00 0.00 0.00 0.00 0.01 0.01 0.01 0.01 0.01 0.01 0.01 0.02 0.02 0.02 0.02 0.02 0.02 0.03 0.03
MSLP
1018.54 1018.57 1018.52 1018.40 1018.23 1018.07 1017.95 1017.92 1018.02 1018.26 1018.65 1019.18 1019.81 1020.50 1021.18 1021.82 1022.35 1022.75 1023.00 1023.09 1023.06 1022.92 1022.72 1022.49 1022.26 1022.04 1021.84 1021.65 1021.43 1021.16 1020.82 1020.39 1019.86 1019.24 1018.54 1017.79 1017.02 1016.26 1015.52 1014.81 1014.13 1013.46 1012.79 1012.10
1018.46 1018.41 1018.29 1018.11 1017.91 1017.74 1017.62 1017.61 1017.73 1018.00 1018.43 1018.98 1019.62 1020.31 1021.00 1021.64 1022.17 1022.58 1022.83 1022.94 1022.92 1022.79 1022.60 1022.37 1022.13 1021.89 1021.66 1021.42 1021.16 1020.85 1020.48 1020.02 1019.47 1018.82 1018.11 1017.34 1016.54 1015.75 1014.97 1014.23 1013.50 1012.80 1012.11 1011.41
1018.39 1018.27 1018.08 1017.86 1017.64 1017.46 1017.37 1017.39 1017.55 1017.85 1018.30 1018.87 1019.53 1020.22 1020.90 1021.52 1022.04 1022.44 1022.69 1022.80 1022.78 1022.66 1022.46 1022.22 1021.95 1021.68 1021.41 1021.12 1020.81 1020.46 1020.04 1019.55 1018.97 1018.32 1017.59 1016.82 1016.02 1015.21 1014.41 1013.64 1012.89 1012.17 1011.46 1010.77
1018.30 1018.11 1017.88 1017.64 1017.43 1017.27 1017.21 1017.28 1017.49 1017.84 1018.32 1018.90 1019.55 1020.23 1020.88 1021.47 1021.96 1022.32 1022.55 1022.64 1022.61 1022.47 1022.26 1021.99 1021.70 1021.39 1021.06 1020.72 1020.36 1019.96 1019.50 1018.98 1018.39 1017.74 1017.02 1016.26 1015.47 1014.67 1013.88 1013.10 1012.35 1011.61 1010.91 1010.21
1018.12 1017.91 1017.67 1017.44 1017.26 1017.16 1017.16 1017.30 1017.56 1017.96 1018.47 1019.06 1019.69 1020.33 1020.94 1021.47 1021.90 1022.20 1022.38 1022.43 1022.36 1022.19 1021.95 1021.66 1021.33 1020.97 1020.61 1020.22 1019.81 1019.37 1018.88 1018.34 1017.75 1017.11 1016.41 1015.68 1014.92 1014.15 1013.38 1012.62 1011.88 1011.15 1010.45 1009.76
1017.84 1017.64 1017.43 1017.25 1017.14 1017.12 1017.21 1017.42 1017.75 1018.20 1018.73 1019.31 1019.92 1020.50 1021.03 1021.48 1021.82 1022.04 1022.14 1022.13 1022.00 1021.80 1021.52 1021.19 1020.83 1020.45 1020.05 1019.63 1019.19 1018.72 1018.21 1017.67 1017.09 1016.46 1015.79 1015.10 1014.38 1013.65 1012.92 1012.19 1011.47 1010.77 1010.08 1009.41
1017.47 1017.32 1017.18 1017.08 1017.06 1017.14 1017.33 1017.63 1018.04 1018.52 1019.07 1019.63 1020.19 1020.69 1021.13 1021.47 1021.70 1021.81 1021.82 1021.72 1021.54 1021.28 1020.97 1020.62 1020.24 1019.84 1019.43 1018.99 1018.54 1018.06 1017.55 1017.01 1016.43 1015.83 1015.19 1014.52 1013.84 1013.15 1012.46 1011.77 1011.09 1010.42 1009.75 1009.10
1017.07 1016.99 1016.94 1016.95 1017.04 1017.23 1017.53 1017.91 1018.38 1018.90 1019.44 1019.97 1020.45 1020.87 1021.19 1021.40 1021.51 1021.51 1021.41 1021.23 1020.97 1020.67 1020.33 1019.97 1019.59 1019.19 1018.78 1018.36 1017.91 1017.43 1016.93 1016.39 1015.82 1015.22 1014.60 1013.96 1013.30 1012.64 1011.98 1011.33 1010.68 1010.04 1009.41 1008.78
1016.71 1016.72 1016.77 1016.89 1017.10 1017.39 1017.78 1018.24 1018.75 1019.28 1019.80 1020.28 1020.68 1020.99 1021.19 1021.28 1021.25 1021.13 1020.93 1020.66 1020.35 1020.01 1019.65 1019.29 1018.92 1018.55 1018.16 1017.76 1017.33 1016.87 1016.37 1015.83 1015.26 1014.66 1014.03 1013.39 1012.73 1012.08 1011.44 1010.82 1010.20 1009.60 1009.00 1008.41
1016.48 1016.58 1016.73 1016.95 1017.26 1017.64 1018.09 1018.60 1019.13 1019.65 1020.13 1020.54 1020.85 1021.05 1021.13 1021.09 1020.94 1020.71 1020.41 1020.07 1019.70 1019.33 1018.97 1018.62 1018.27 1017.93 1017.59 1017.22 1016.81 1016.37 1015.87 1015.33 1014.75 1014.12 1013.46 1012.79 1012.12 1011.47 1010.83 1010.21 1009.62 1009.05 1008.50 1007.96
1016.46 1016.63 1016.86 1017.16 1017.53 1017.96 1018.45 1018.97 1019.49 1019.97 1020.39 1020.72 1020.94 1021.03 1020.99 1020.84 1020.58 1020.25 1019.87 1019.47 1019.06 1018.67 1018.31 1017.97 1017.66 1017.35 1017.04 1016.71 1016.33 1015.91 1015.41 1014.86 1014.24 1013.58 1012.89 1012.18 1011.47 1010.78 1010.13 1009.51 1008.94 1008.41 1007.91 1007.43
1016.66 1016.88 1017.17 1017.51 1017.91 1018.36 1018.85 1019.34 1019.81 1020.23 1020.57 1020.81 1020.93 1020.92 1020.78 1020.53 1020.19 1019.78 1019.34 1018.88 1018.44 1018.04 1017.67 1017.35 1017.06 1016.78 1016.51 1016.20 1015.85 1015.43 1014.94 1014.37 1013.73 1013.03 1012.29 1011.53 1010.78 1010.06 1009.38 1008.76 1008.21 1007.71 1007.26 1006.84
1017.06 1017.32 1017.63 1017.98 1018.38 1018.80 1019.24 1019.67 1020.07 1020.40 1020.66 1020.80 1020.83 1020.73 1020.51 1020.18 1019.77 1019.30 1018.80 1018.31 1017.84 1017.42 1017.04 1016.72 1016.44 1016.18 1015.93 1015.64 1015.31 1014.90 1014.41 1013.83 1013.17 1012.45 1011.67 1010.87 1010.08 1009.33 1008.63 1008.00 1007.45 1006.98 1006.58 1006.22
1017.60 1017.87 1018.17 1018.51 1018.87 1019.24 1019.60 1019.95 1020.25 1020.48 1020.64 1020.69 1020.63 1020.45 1020.16 1019.78 1019.31 1018.80 1018.27 1017.74 1017.25 1016.80 1016.40 1016.07 1015.78 1015.52 1015.27 1014.99 1014.67 1014.27 1013.79 1013.22 1012.56 1011.83 1011.03 1010.21 1009.40 1008.62 1007.91 1007.27 1006.72 1006.27 1005.90 1005.59
1018.18 1018.45 1018.74 1019.03 1019.33 1019.63 1019.90 1020.14 1020.33 1020.46 1020.51 1020.47 1020.33 1020.09 1019.75 1019.32 1018.83 1018.28 1017.72 1017.16 1016.64 1016.16 1015.73 1015.37 1015.05 1014.78 1014.51 1014.24 1013.92 1013.55 1013.09 1012.54 1011.90 1011.18 1010.39 1009.58 1008.76 1007.97 1007.24 1006.59 1006.04 1005.59 1005.23 1004.95
1018.74 1018.99 1019.25 1019.50 1019.72 1019.92 1020.09 1020.22 1020.30 1020.32 1020.27 1020.15 1019.94 1019.65 1019.27 1018.81 1018.30 1017.73 1017.15 1016.56 1016.00 1015.48 1015.02 1014.61 1014.26 1013.96 1013.68 1013.39 1013.09 1012.73 1012.31 1011.79 1011.19 1010.51 1009.76 1008.97 1008.16 1007.38 1006.64 1005.98 1005.42 1004.95 1004.58 1004.29
1019.20 1019.44 1019.66 1019.85 1020.00 1020.11 1020.17 1020.19 1020.16 1020.07 1019.94 1019.74 1019.47 1019.13 1018.72 1018.25 1017.72 1017.15 1016.54 1015.94 1015.35 1014.79 1014.28 1013.83 1013.43 1013.09 1012.79 1012.50 1012.20 1011.87 1011.48 1011.01 1010.47 1009.84 1009.14 1008.39 1007.61 1006.83 1006.09 1005.42 1004.82 1004.32 1003.91 1003.59
1019.55 1019.77 1019.95 1020.07 1020.15 1020.16 1020.12 1020.03 1019.90 1019.72 1019.50 1019.23 1018.91 1018.54 1018.11 1017.63 1017.09 1016.51 1015.91 1015.28 1014.66 1014.07 1013.52 1013.03 1012.59 1012.21 1011.88 1011.59 1011.30 1010.99 1010.64 1010.23 1009.75 1009.18 1008.53 1007.83 1007.07 1006.31 1005.56 1004.86 1004.23 1003.68 1003.22 1002.86
1019.78 1019.96 1020.09 1020.15 1020.15 1020.07 1019.94 1019.75 1019.53 1019.26 1018.97 1018.64 1018.28 1017.88 1017.44 1016.95 1016.41 1015.84 1015.23 1014.60 1013.96 1013.35 1012.77 1012.24 1011.77 1011.36 1011.01 1010.70 1010.42 1010.14 1009.82 1009.46 1009.03 1008.52 1007.93 1007.26 1006.53 1005.78 1005.02 1004.29 1003.61 1003.00 1002.49 1002.07
1019.88 1020.03 1020.10 1020.09 1020.01 1019.85 1019.62 1019.35 1019.04 1018.70 1018.34 1017.96 1017.57 1017.15 1016.69 1016.20 1015.67 1015.11 1014.50 1013.88 1013.24 1012.62 1012.02 1011.47 1010.98 1010.55 1010.18 1009.87 1009.59 1009.32 1009.03 1008.70 1008.31 1007.85 1007.29 1006.65 1005.95 1005.20 1004.43 1003.67 1002.95 1002.30 1001.74 1001.27
1019.88 1019.96 1019.97 1019.88 1019.72 1019.48 1019.17 1018.82 1018.44 1018.03 1017.62 1017.20 1016.77 1016.33 1015.87 1015.39 1014.87 1014.31 1013.72 1013.11 1012.48 1011.86 1011.26 1010.71 1010.20 1009.76 1009.39 1009.07 1008.79 1008.53 1008.25 1007.95 1007.58 1007.14 1006.61 1006.00 1005.31 1004.56 1003.79 1003.01 1002.26 1001.57 1000.97 1000.47
1019.75 1019.76 1019.68 1019.52 1019.27 1018.95 1018.58 1018.16 1017.71 1017.26 1016.80 1016.35 1015.90 1015.44 1014.98 1014.50 1013.99 1013.45 1012.88 1012.28 1011.68 1011.07 1010.48 1009.94 1009.43 1008.99 1008.61 1008.29 1008.01 1007.74 1007.47 1007.17 1006.82 1006.39 1005.88 1005.28 1004.61 1003.87 1003.09 1002.31 1001.55 1000.85 1000.23 999.71
1019.47 1019.39 1019.22 1018.98 1018.66 1018.27 1017.83 1017.36 1016.87 1016.38 1015.90 1015.42 1014.95 1014.49 1014.02 1013.54 1013.04 1012.52 1011.97 1011.40 1010.82 1010.23 1009.67 1009.13 1008.65 1008.21 1007.83 1007.51 1007.22 1006.95 1006.67 1006.37 1006.02 1005.60 1005.10 1004.51 1003.85 1003.13 1002.36 1001.59 1000.84 1000.15 999.53 999.01
1019.01 1018.83 1018.58 1018.26 1017.87 1017.43 1016.95 1016.45 1015.94 1015.42 1014.92 1014.43 1013.95 1013.48 1013.02 1012.54 1012.05 1011.54 1011.01 1010.46 1009.90 1009.35 1008.81 1008.30 1007.82 1007.40 1007.03 1006.70 1006.40 1006.13 1005.85 1005.54 1005.19 1004.77 1004.27 1003.70 1003.06 1002.36 1001.62 1000.88 1000.15 999.48 998.87 998.36
1018.37 1018.11 1017.78 1017.39 1016.96 1016.48 1015.98 1015.46 1014.94 1014.43 1013.92 1013.43 1012.95 1012.48 1012.01 1011.53 1011.05 1010.55 1010.03 1009.50 1008.97 1008.44 1007.92 1007.43 1006.98 1006.57 1006.20 1005.88 1005.58 1005.29 1005.00 1004.69 1004.33 1003.91 1003.43 1002.87 1002.25 1001.58 1000.88 1000.17 999.48 998.83 998.25 997.74
1017.58 1017.23 1016.85 1016.42 1015.96 1015.47 1014.97 1014.46 1013.95 1013.44 1012.95 1012.47 1011.99 1011.52 1011.05 1010.58 1010.09 1009.59 1009.09 1008.57 1008.05 1007.54 1007.05 1006.58 1006.15 1005.75 1005.39 1005.06 1004.76 1004.46 1004.16 1003.84 1003.47 1003.06 1002.58 1002.04 1001.44 1000.80 1000.14 999.46 998.80 998.18 997.61 997.11
1016.69 1016.30 1015.88 1015.43 1014.97 1014.50 1014.01 1013.52 1013.04 1012.56 1012.08 1011.61 1011.14 1010.67 1010.20 1009.72 1009.23 1008.73 1008.23 1007.71 1007.21 1006.71 1006.24 1005.78 1005.36 1004.97 1004.62 1004.28 1003.97 1003.67 1003.35 1003.01 1002.64 1002.21 1001.74 1001.21 1000.63 1000.01 999.37 998.72 998.09 997.48 996.92 996.41
Thickness
5631 5624 5622 5625 5625 5616 5616 5625 5622 5632 5630 5627 5616 5605 5597 5588 5579 5571 5564 5556 5550 5545 5541 5535 5529 5524 5518 5512 5506 5499 5494 5489 5484 5478 5472 5466 5460 5454 5448 5442 5435 5429 5424 5419
5618 5612 5609 5611 5621 5619 5615 5617 5619 5619 5618 5617 5604 5595 5587 5579 5570 5562 5555 5547 5540 5534 5529 5524 5518 5512 5505 5500 5493 5487 5481 5476 5470 5464 5458 5452 5446 5440 5433 5427 5422 5416 5410 5405
5615 5602 5603 5613 5628 5621 5613 5613 5611 5608 5610 5598 5588 5581 5576 5569 5559 5552 5544 5536 5529 5523 5518 5511 5505 5498 5492 5486 5480 5474 5468 5462 5457 5451 5445 5438 5432 5425 5420 5414 5409 5403 5397 5391
5600 5595 5590 5627 5615 5613 5608 5605 5601 5597 5590 5584 5578 5570 5564 5557 5550 5542 5532 5525 5518 5512 5505 5499 5492 5485 5479 5473 5467 5461 5455 5450 5444 5437 5431 5424 5417 5411 5406 5400 5395 5390 5384 5378
5589 5594 5605 5615 5605 5599 5596 5599 5594 5587 5580 5570 5561 5556 5553 5543 5535 5528 5520 5513 5506 5499 5493 5486 5480 5473 5467 5461 5455 5450 5444 5438 5430 5423 5417 5410 5403 5397 5391 5386 5382 5376 5371 5365
5581 5577 5586 5609 5595 5589 5587 5591 5586 5577 5569 5559 5550 5552 5551 5533 5522 5515 5507 5500 5493 5486 5480 5474 5468 5461 5454 5449 5444 5439 5432 5424 5416 5408 5401 5396 5390 5384 5378 5372 5368 5363 5359 5354
5579 5576 5593 5595 5582 5577 5578 5588 5573 5566 5559 5549 5544 5541 5530 5518 5509 5501 5494 5487 5480 5474 5468 5462 5455 5448 5442 5437 5432 5426 5418 5410 5402 5394 5387 5382 5376 5371 5365 5360 5355 5352 5348 5345
5576 5569 5580 5578 5571 5574 5577 5564 5558 5552 5544 5536 5529 5518 5510 5503 5495 5488 5481 5475 5468 5462 5456 5449 5442 5435 5431 5426 5420 5412 5405 5398 5390 5383 5375 5368 5363 5359 5352 5347 5343 5341 5338 5336
5581 5584 5574 5568 5567 5560 5555 5551 5543 5537 5528 5520 5511 5504 5496 5489 5483 5476 5469 5463 5456 5450 5444 5437 5430 5423 5417 5413 5405 5398 5391 5385 5378 5371 5363 5356 5350 5346 5341 5335 5331 5329 5327 5327
5565 5567 5561 5554 5550 5544 5539 5535 5528 5521 5513 5505 5498 5491 5483 5477 5470 5464 5457 5450 5443 5437 5431 5426 5419 5411 5404 5398 5391 5384 5378 5372 5365 5359 5353 5346 5339 5333 5328 5324 5321 5318 5318 5319
5558 5554 5545 5541 5537 5531 5524 5517 5510 5503 5497 5490 5484 5477 5471 5464 5458 5451 5444 5437 5430 5423 5418 5412 5406 5400 5392 5384 5376 5370 5365 5359 5352 5345 5339 5335 5330 5324 5318 5315 5310 5309 5310 5310
5559 5550 5543 5538 5528 5519 5510 5503 5497 5490 5482 5476 5469 5463 5457 5451 5445 5438 5431 5424 5417 5411 5405 5400 5394 5388 5380 5371 5362 5356 5351 5345 5339 5332 5327 5322 5320 5319 5315 5310 5309 5306 5305 5304
5536 5527 5524 5518 5510 5503 5497 5490 5482 5476 5470 5463 5456 5450 5443 5437 5431 5424 5417 5411 5405 5399 5393 5387 5381 5375 5367 5358 5350 5342 5336 5331 5325 5320 5316 5312 5309 5308 5311 5312 5307 5304 5303 5302
5513 5510 5505 5500 5494 5487 5481 5474 5468 5461 5455 5449 5442 5436 5429 5423 5417 5411 5405 5399 5393 5386 5380 5375 5369 5362 5354 5346 5338 5331 5325 5319 5313 5309 5306 5303 5301 5300 5300 5302 5304 5305 5302 5299
5499 5497 5493 5485 5478 5472 5465 5459 5453 5448 5442 5436 5430 5423 5416 5410 5405 5400 5394 5387 5381 5374 5369 5363 5357 5350 5342 5333 5326 5320 5314 5310 5305 5301 5298 5296 5295 5294 5294 5293 5295 5297 5298 5298
5482 5478 5474 5470 5465 5458 5452 5446 5441 5436 5430 5423 5417 5411 5405 5398 5393 5388 5382 5375 5368 5363 5357 5350 5344 5337 5329 5320 5314 5310 5306 5301 5296 5293 5292 5290 5289 5288 5288 5288 5289 5290 5291 5292
5468 5464 5460 5456 5451 5445 5439 5433 5427 5421 5416 5410 5405 5399 5392 5386 5382 5378 5372 5364 5356 5350 5343 5336 5331 5324 5316 5309 5303 5300 5297 5294 5290 5287 5286 5284 5283 5283 5282 5283 5283 5284 5285 5286
5458 5453 5448 5442 5436 5430 5425 5419 5413 5407 5402 5397 5391 5385 5380 5375 5370 5366 5359 5352 5346 5340 5333 5326 5319 5312 5306 5299 5294 5290 5287 5286 5284 5282 5281 5279 5278 5278 5278 5278 5279 5279 5281 5282
5440 5436 5431 5425 5420 5415 5410 5405 5400 5394 5389 5383 5378 5373 5367 5361 5356 5351 5345 5338 5333 5330 5326 5317 5309 5302 5297 5291 5285 5283 5281 5279 5278 5277 5275 5275 5274 5274 5273 5274 5274 5275 5276 5277
5425 5420 5415 5410 5405 5399 5395 5391 5387 5382 5377 5370 5364 5359 5355 5350 5343 5337 5331 5325 5320 5315 5311 5305 5299 5294 5289 5284 5279 5277 5275 5273 5272 5271 5270 5269 5269 5269 5269 5269 5270 5270 5271 5272
5410 5406 5401 5397 5392 5388 5383 5379 5374 5369 5364 5357 5350 5345 5341 5336 5329 5323 5317 5317 5315 5306 5299 5294 5289 5284 5280 5276 5274 5272 5269 5267 5266 5265 5265 5264 5265 5264 5264 5265 5266 5267 5267 5269
5396 5392 5389 5385 5381 5377 5372 5366 5360 5355 5350 5345 5338 5332 5326 5322 5319 5314 5309 5303 5301 5295 5289 5285 5280 5276 5272 5270 5268 5266 5264 5262 5261 5260 5260 5260 5260 5260 5261 5261 5262 5263 5264 5265
5384 5380 5375 5371 5367 5363 5358 5352 5347 5342 5337 5332 5326 5320 5314 5310 5305 5301 5301 5297 5289 5284 5279 5276 5272 5268 5266 5264 5262 5260 5258 5257 5256 5256 5256 5256 5256 5256 5257 5258 5259 5260 5261 5262
5370 5366 5361 5356 5351 5346 5344 5342 5336 5330 5324 5318 5313 5306 5300 5297 5296 5291 5286 5284 5278 5274 5271 5268 5264 5262 5260 5258 5256 5254 5253 5253 5252 5252 5253 5253 5253 5253 5253 5254 5255 5257 5258 5259
5356 5351 5346 5340 5338 5336 5334 5330 5324 5319 5314 5310 5305 5299 5292 5286 5282 5281 5276 5273 5269 5265 5263 5261 5258 5255 5252 5251 5250 5249 5249 5249 5249 5249 5250 5250 5250 5250 5251 5251 5252 5254 5255 5257
5342 5339 5335 5330 5325 5322 5318 5314 5311 5308 5302 5300 5296 5290 5284 5278 5273 5269 5266 5263 5260 5257 5254 5253 5251 5249 5247 5246 5245 5245 5245 5246 5247 5246 5247 5247 5248 5248 5249 5250 5250 5252 5253 5255
5328 5325 5321 5318 5315 5309 5304 5300 5296 5293 5289 5284 5282 5279 5273 5268 5264 5260 5257 5254 5252 5250 5248 5246 5245 5243 5242 5242 5242 5242 5243 5243 5244 5245 5246 5246 5246 5247 5248 5248 5249 5251 5252 5254